Weather History for KDEH - April, 2013

Change the Weather History Date:

Friday, April 12, 2013

  Actual Average Record
Temperature  
Mean Temperature 32 °F -  
Max Temperature 33 °F 56 °F 78 °F (1968)
Min Temperature 30 °F 36 °F 20 °F (1950)
Degree Days  
Heating Degree Days 34    
Moisture  
Dew Point 29 °F    
Average Humidity 88    
Maximum Humidity 100    
Minimum Humidity 70    
Precipitation  
Precipitation 0.04 in - - ()
Sea Level Pressure  
Sea Level Pressure 29.67 in    
Wind  
Wind Speed 8 mph (NW)    
Max Wind Speed 13 mph    
Max Gust Speed 23 mph    
Visibility 8 miles    
Events Rain , Snow    
Averages and records for this station are not official NWS values.
T = Trace of Precipitation, MM = Missing Value Source: NWS Daily Summary

Daily Weather History Graph

Daily Weather History Graph

Search for Another Location

Airport or City:

Trip Planner

Search our weather history database for the weather conditions in past years. The results will help you decide how hot, cold, wet, or windy it might be!

Date:

Astronomy

Apr. 12, 2013 Rise Set
Actual Time 6:29 AM CDT 7:46 PM CDT
Civil Twilight 5:59 AM CDT 8:16 PM CDT
Nautical Twilight 5:24 AM CDT 8:51 PM CDT
Astronomical Twilight 4:47 AM CDT 9:29 PM CDT
Moon 7:35 AM CDT (4/12) 10:22 PM CDT (4/12)
Length of Visible Light 14h 16m
Length of Day
13h 17m
Waxing Crescent, 5% of the Moon is Illuminated
Apr 12
Waxing Crescent
Apr 18
First Quarter
Apr 25
Full
May 2
Last Quarter
May 9
New

Hourly Weather History & Observations

Time (CDT) Temp. Windchill Dew Point Humidity Pressure Visibility Wind Dir Wind Speed Gust Speed Precip Events Conditions
12:15 AM 33.8 °F 25.8 °F 33.8 °F 100% 29.56 in 5.0 mi ENE 10.4 mph - N/A Snow Light Snow
12:35 AM 33.8 °F 29.6 °F 33.8 °F 100% 29.56 in 3.0 mi ENE 4.6 mph - N/A Snow Light Snow
12:55 AM 33.8 °F 28.6 °F 32.0 °F 93% 29.56 in 1.8 mi NE 5.8 mph - 0.01 in Snow Light Snow
1:15 AM 33.8 °F 28.6 °F 33.8 °F 100% 29.56 in 2.5 mi ENE 5.8 mph - N/A Snow Light Snow
1:35 AM 33.8 °F 30.8 °F 32.0 °F 93% 29.56 in 2.5 mi NE 3.5 mph - N/A Snow Light Snow
1:55 AM 33.8 °F 29.6 °F 32.0 °F 93% 29.56 in 2.0 mi NE 4.6 mph - 0.02 in Snow Light Snow
2:15 AM 32.0 °F 27.5 °F 32.0 °F 100% 29.55 in 2.0 mi Variable 4.6 mph - N/A Snow Light Snow
2:35 AM 32.0 °F 27.5 °F 32.0 °F 100% 29.55 in 2.5 mi NE 4.6 mph - N/A Snow Light Snow
2:55 AM 32.0 °F - 32.0 °F 100% 29.54 in 4.0 mi Calm Calm - 0.01 in Snow Light Snow
3:15 AM 32.0 °F 27.5 °F 32.0 °F 100% 29.54 in 7.0 mi NNE 4.6 mph - N/A Snow Light Snow
3:35 AM 32.0 °F 27.5 °F 32.0 °F 100% 29.54 in 6.0 mi NNE 4.6 mph - N/A Snow Light Snow
3:55 AM 32.0 °F 25.6 °F 32.0 °F 100% 29.55 in 7.0 mi NNE 6.9 mph - N/A Rain Light Rain
4:15 AM 32.0 °F 25.6 °F 32.0 °F 100% 29.55 in 6.0 mi NNE 6.9 mph - N/A Rain Light Rain
4:35 AM 32.0 °F 26.4 °F 32.0 °F 100% 29.55 in 5.0 mi North 5.8 mph - N/A Rain Light Rain
4:55 AM 32.0 °F 26.4 °F 32.0 °F 100% 29.55 in 3.0 mi North 5.8 mph - N/A Snow Light Snow
5:15 AM 32.0 °F 25.6 °F 32.0 °F 100% 29.55 in 2.5 mi North 6.9 mph - N/A Snow Light Snow
5:35 AM 32.0 °F 24.8 °F 32.0 °F 100% 29.55 in 4.0 mi North 8.1 mph - N/A Rain Light Rain
5:55 AM 32.0 °F 25.6 °F 32.0 °F 100% 29.55 in 6.0 mi North 6.9 mph - N/A Rain Light Rain
6:15 AM 32.0 °F 24.8 °F 32.0 °F 100% 29.56 in 8.0 mi North 8.1 mph - N/A   Overcast
6:35 AM 32.0 °F 23.6 °F 30.2 °F 93% 29.56 in 10.0 mi North 10.4 mph - N/A   Overcast
6:55 AM 32.0 °F 25.6 °F 30.2 °F 93% 29.57 in 10.0 mi North 6.9 mph - N/A   Overcast
7:15 AM 30.2 °F 23.4 °F 30.2 °F 100% 29.57 in 10.0 mi North 6.9 mph 13.8 mph N/A   Overcast
7:35 AM 30.2 °F 22.6 °F 30.2 °F 100% 29.58 in 10.0 mi North 8.1 mph - N/A   Overcast
7:55 AM 30.2 °F 22.6 °F 30.2 °F 100% 29.59 in 10.0 mi NNW 8.1 mph - N/A   Overcast
8:15 AM 32.0 °F 24.8 °F 30.2 °F 93% 29.60 in 10.0 mi NNW 8.1 mph - N/A   Overcast
8:35 AM 30.2 °F 21.9 °F 30.2 °F 100% 29.61 in 10.0 mi NNW 9.2 mph - N/A   Overcast
8:55 AM 32.0 °F 23.6 °F 30.2 °F 93% 29.62 in 10.0 mi NNW 10.4 mph - N/A   Overcast
9:15 AM 30.2 °F 20.2 °F 28.4 °F 93% 29.61 in 4.0 mi NNW 12.7 mph - N/A Snow Light Snow
9:55 AM 32.0 °F 24.2 °F 30.2 °F 93% 29.62 in 10.0 mi NNW 9.2 mph - N/A Snow Light Snow
10:15 AM 32.0 °F 23.6 °F 28.4 °F 87% 29.64 in 10.0 mi NW 10.4 mph - N/A Snow Light Snow
10:35 AM 32.0 °F 24.2 °F 28.4 °F 87% 29.65 in 10.0 mi NNW 9.2 mph - N/A   Overcast
10:55 AM 32.0 °F 24.8 °F 28.4 °F 87% 29.65 in 10.0 mi NW 8.1 mph 13.8 mph N/A   Overcast
11:15 AM 32.0 °F 24.2 °F 30.2 °F 93% 29.66 in 10.0 mi NW 9.2 mph - N/A   Overcast
11:35 AM 32.0 °F 24.2 °F 28.4 °F 87% 29.66 in 10.0 mi NW 9.2 mph 16.1 mph N/A   Overcast
11:55 AM 32.0 °F 23.6 °F 28.4 °F 87% 29.67 in 10.0 mi NW 10.4 mph 17.3 mph N/A   Overcast
12:15 PM 32.0 °F 24.2 °F 28.4 °F 87% 29.67 in 10.0 mi NW 9.2 mph 16.1 mph N/A   Overcast
12:35 PM 32.0 °F 23.0 °F 28.4 °F 87% 29.68 in 10.0 mi NW 11.5 mph 18.4 mph N/A   Overcast
12:55 PM 32.0 °F 23.0 °F 28.4 °F 87% 29.69 in 10.0 mi WNW 11.5 mph 18.4 mph N/A   Overcast
1:15 PM 32.0 °F 24.2 °F 26.6 °F 80% 29.70 in 10.0 mi WNW 9.2 mph 18.4 mph N/A Rain Light Rain
1:35 PM 33.8 °F 26.4 °F 28.4 °F 81% 29.70 in 10.0 mi WNW 9.2 mph 17.3 mph N/A   Overcast
1:55 PM 33.8 °F 26.4 °F 28.4 °F 81% 29.71 in 10.0 mi NW 9.2 mph 18.4 mph N/A   Overcast
2:15 PM 33.8 °F 27.0 °F 28.4 °F 81% 29.72 in 10.0 mi NW 8.1 mph 17.3 mph N/A   Overcast
2:35 PM 33.8 °F 25.8 °F 26.6 °F 75% 29.73 in 10.0 mi WNW 10.4 mph 17.3 mph N/A   Overcast
2:55 PM 33.8 °F 26.4 °F 26.6 °F 75% 29.73 in 10.0 mi WNW 9.2 mph 23.0 mph N/A   Overcast
3:15 PM 33.8 °F 25.3 °F 26.6 °F 75% 29.73 in 10.0 mi WNW 11.5 mph 23.0 mph N/A Rain Light Rain
3:35 PM 33.8 °F 25.8 °F 26.6 °F 75% 29.74 in 10.0 mi West 10.4 mph 19.6 mph N/A   Overcast
3:55 PM 33.8 °F 24.8 °F 28.4 °F 81% 29.74 in 10.0 mi West 12.7 mph 20.7 mph N/A Rain Light Rain
4:15 PM 33.8 °F 25.8 °F 28.4 °F 81% 29.75 in 10.0 mi WNW 10.4 mph 17.3 mph N/A   Overcast
4:35 PM 33.8 °F 25.8 °F 26.6 °F 75% 29.74 in 10.0 mi WNW 10.4 mph 16.1 mph N/A Rain Light Rain
4:55 PM 33.8 °F 25.8 °F 24.8 °F 70% 29.75 in 10.0 mi WNW 10.4 mph 21.9 mph N/A Rain Light Rain
5:15 PM 33.8 °F 27.0 °F 26.6 °F 75% 29.76 in 10.0 mi WNW 8.1 mph 15.0 mph N/A   Overcast
5:35 PM 33.8 °F 26.4 °F 26.6 °F 75% 29.76 in 10.0 mi West 9.2 mph 18.4 mph N/A   Overcast
5:55 PM 33.8 °F 28.6 °F 26.6 °F 75% 29.77 in 10.0 mi Variable 5.8 mph 15.0 mph N/A   Overcast
6:15 PM 33.8 °F 27.0 °F 26.6 °F 75% 29.77 in 10.0 mi West 8.1 mph - N/A   Overcast
6:35 PM 33.8 °F 27.7 °F 28.4 °F 81% 29.78 in 10.0 mi West 6.9 mph - N/A   Overcast
6:55 PM 33.8 °F 27.0 °F 26.6 °F 75% 29.78 in 10.0 mi WSW 8.1 mph 15.0 mph N/A   Overcast
7:15 PM 33.8 °F 26.4 °F 26.6 °F 75% 29.78 in 10.0 mi West 9.2 mph 18.4 mph N/A   Overcast
7:35 PM 33.8 °F 27.0 °F 28.4 °F 81% 29.78 in 10.0 mi West 8.1 mph 15.0 mph N/A   Overcast
7:55 PM 33.8 °F 27.7 °F 28.4 °F 81% 29.79 in 10.0 mi Variable 6.9 mph 16.1 mph N/A Rain Light Rain
8:15 PM 33.8 °F 27.0 °F 28.4 °F 81% 29.79 in 10.0 mi West 8.1 mph - N/A   Overcast
8:35 PM 33.8 °F 27.7 °F 28.4 °F 81% 29.79 in 10.0 mi West 6.9 mph 15.0 mph N/A   Overcast
8:55 PM 32.0 °F 24.8 °F 28.4 °F 87% 29.80 in 10.0 mi West 8.1 mph - N/A   Overcast
9:15 PM 32.0 °F 26.4 °F 28.4 °F 87% 29.80 in 10.0 mi Variable 5.8 mph 12.7 mph N/A   Overcast
9:35 PM 32.0 °F 26.4 °F 28.4 °F 87% 29.81 in 10.0 mi West 5.8 mph 11.5 mph N/A   Overcast
9:55 PM 32.0 °F 24.2 °F 28.4 °F 87% 29.81 in 10.0 mi West 9.2 mph 16.1 mph N/A   Overcast
10:15 PM 32.0 °F 25.6 °F 28.4 °F 87% 29.81 in 10.0 mi Variable 6.9 mph 13.8 mph N/A   Mostly Cloudy
10:35 PM 32.0 °F 25.6 °F 28.4 °F 87% 29.81 in 10.0 mi West 6.9 mph - N/A   Overcast
10:55 PM 32.0 °F 24.8 °F 28.4 °F 87% 29.81 in 10.0 mi West 8.1 mph 15.0 mph N/A   Overcast
11:15 PM 32.0 °F 24.8 °F 28.4 °F 87% 29.81 in 10.0 mi West 8.1 mph - N/A   Overcast
11:35 PM 32.0 °F 25.6 °F 28.4 °F 87% 29.81 in 10.0 mi West 6.9 mph 12.7 mph N/A   Overcast
11:55 PM 32.0 °F 25.6 °F 28.4 °F 87% 29.81 in 10.0 mi Variable 6.9 mph - N/A   Overcast